EUTELSAT 133 WEST A

Last updated on Sat Jun 17 2023 00:02:44 GMT+0000 (Coordinated Universal Time)

1 26719U 01011A 23167.12688292 -.00000157 00000+0 00000+0 0 9997 2 26719 4.5941 79.1079 0004714 322.1529 273.6131 0.98794835 81547
UTC large
Height (km)
Speed (km/s)
/
Latitude / Longitude
Inclination (degrees)
Orbital Period (minutes)
Azimuth
Elevation
Range (km)
Doppler Factor

Next 0 passes for location: London (51.5072 / 0.1276)

Sorry there are no passes over London.